RH
96 98 98 99 94 89 86 86 79 76 69 66 60 58 62 68 70 72 76 79 73 84 81 83 90 78 78 77 76 80 79 79 79 78 77 76 78 79 81 83 86 87 91
96 95 95 93 88 86 82 75 72 68 64 64 62 63 56 50 46 56 66 69 69 75 94 86 85 83 84 86 83 87 88 89 87 86 84 81 78 76 79 81 82 84 86
86 84 86 86 79 75 75 73 68 63 62 58 53 55 54 51 49 46 51 56 61 69 72 91 94 90 89 87 84 92 94 89 82 76 69 67 72 81 84 79 80 81 82
71 71 71 70 68 66 64 62 61 58 57 58 57 56 58 57 57 57 54 53 61 71 74 74 69 67 83 87 94 97 97 90 82 75 70 65 69 73 80 86 86 84 83
64 64 65 62 59 60 55 64 62 62 64 61 58 49 52 55 57 62 68 64 55 67 76 77 74 67 67 62 56 82 85 84 87 85 80 80 74 76 79 82 85 84 84
65 67 68 68 67 66 64 66 62 56 61 56 50 57 60 63 70 76 80 80 70 68 75 80 81 80 82 80 84 94 95 95 88 89 93 94 86 73 70 73 86 93 91
64 66 67 65 65 64 64 63 68 69 62 63 64 65 65 69 69 68 73 86 85 82 79 78 76 76 79 94 86 81 98 98 94 88 92 93 94 93 90 86 85 87 90
63 66 66 67 66 64 64 64 64 65 69 66 69 71 83 73 72 70 71 77 74 70 71 76 76 73 74 78 80 78 76 76 96 96 93 92 93 93 90 94 93 90 94
64 67 65 67 68 67 66 66 65 64 67 66 68 71 81 83 72 69 70 68 66 65 66 64 70 74 71 68 66 64 62 61 63 92 91 91 97 97 94 94 97 98 97
60 62 66 66 68 70 66 65 66 65 64 68 67 69 67 70 83 82 78 64 63 61 62 64 64 64 71 75 73 70 68 77 94 90 86 91 98 95 96 99 98 98 90
62 60 61 64 67 69 66 65 66 66 69 69 68 70 71 73 70 81 86 77 66 65 59 63 65 64 73 76 76 72 68 64 74 93 89 98 99 99 95 96 96 95 96
71 67 67 67 68 68 65 61 63 70 70 72 73 73 73 75 75 78 85 83 78 68 58 62 60 60 74 75 74 77 70 64 61 63 91 89 66 65 94 100 99 98 94
77 71 71 69 69 69 68 68 68 67 72 72 74 74 75 76 76 76 77 81 84 71 63 59 62 72 82 77 80 72 71 65 61 63 81 98 84 56 84 99 100 99 99
75 74 76 74 72 69 69 70 71 72 70 74 77 77 78 76 73 75 76 80 88 86 72 63 88 92 89 87 82 74 72 69 58 65 71 83 98 57 87 100 99 98 100
77 77 76 73 72 74 75 75 76 77 78 79 84 82 81 83 81 81 79 82 85 88 90 71 77 78 78 88 90 88 93 88 89 84 85 100 100 97 94 96 99 99 94
79 78 75 76 77 78 75 76 79 78 80 84 82 82 82 80 80 81 90 89 90 91 96 78 80 82 88 92 96 96 98 96 96 93 97 100 100 100 97 95 97 99 98
78 75 75 80 79 79 81 81 84 82 81 80 79 80 79 77 76 79 82 87 93 97 97 90 87 87 88 99 100 99 99 100 98 98 98 98 99 97 98 98 95 95 93
78 76 80 82 84 83 82 83 85 81 81 78 78 84 83 83 78 84 92 97 97 99 100 100 96 94 92 100 99 99 99 100 100 100 100 100 99 99 99 97 96 96 95
82 84 83 86 85 81 82 84 84 82 81 79 82 88 89 98 91 95 95 91 92 97 97 100 99 99 99 100 100 100 100 99 100 100 100 100 100 99 100 97 99 98 97
86 84 86 81 84 84 83 87 86 85 84 85 89 91 91 96 98 99 98 97 96 94 95 96 90 96 99 99 100 100 100 99 100 99 100 100 100 100 99 97 87 94 96
92 94 91 86 85 83 83 87 89 89 90 91 92 92 97 96 100 97 96 91 89 96 95 91 100 100 100 99 99 99 100 100 100 100 100 99 99 97 92 85 94 92 91
97 98 96 92 85 83 82 83 88 90 91 91 95 95 96 100 100 96 93 92 93 93 91 100 100 99 100 100 100 100 100 100 100 100 100 89 87 89 89 95 89 89 96
98 92 89 88 90 88 84 85 89 88 90 91 94 96 99 100 100 99 99 85 85 88 84 95 91 93 93 91 84 78 89 88 84 80 90 75 77 76 76 92 96 96 88
98 91 91 94 89 93 87 83 92 88 89 91 92 95 99 99 99 95 92 67 68 67 64 66 70 77 75 81 72 59 61 61 65 56 71 80 63 67 70 64 68 73 64
97 98 96 96 96 92 88 83 89 90 92 95 97 95 96 99 99 98 85 54 61 75 92 92 80 61 48 47 56 59 65 75 88 74 58 62 76 67 62 71 71 76 74
98 98 98 95 88 89 88 86 88 91 100 100 95 89 98 100 100 99 85 58 52 60 65 62 58 53 52 49 47 46 55 63 80 82 70 54 79 75 72 77 77 78 72
Wind_Speed
7 8 7 6 5 4 4 2 4 5 4 6 4 5 7 5 1 3 2 1 3 4 5 6 8 8 7 5 5 5 4 3 3 3 4 5 6 7 9 10 12 13 14
4 5 5 6 5 4 1 1 3 5 6 7 6 7 7 5 5 4 3 2 2 3 4 5 3 4 6 7 6 4 3 2 2 2 3 4 4 5 7 9 12 13 15
5 6 5 5 4 3 5 6 7 6 7 4 4 4 3 2 4 4 3 3 3 2 2 5 5 5 4 3 4 4 3 3 2 3 4 5 5 6 7 9 10 12 13
3 3 4 4 4 5 5 7 7 5 5 4 4 2 3 1 2 3 4 6 3 2 2 1 3 4 4 2 1 2 2 3 4 5 6 6 5 6 6 7 9 10 11
4 3 3 2 2 2 3 5 5 6 4 2 2 2 2 4 3 1 0 1 5 4 2 2 2 2 2 3 3 3 2 2 2 3 4 4 4 5 5 5 7 8 9
4 5 4 2 2 2 1 0 2 2 2 4 4 1 1 1 4 6 5 6 6 4 2 3 2 2 3 3 2 3 3 2 1 1 2 2 4 6 6 7 8 8 9
7 5 5 5 2 5 3 2 2 1 3 2 5 6 5 4 6 7 7 7 10 10 9 7 5 6 5 3 3 4 4 3 3 2 3 3 2 3 4 5 6 6 7
6 7 6 5 5 4 4 3 3 3 3 3 2 5 1 2 4 6 8 9 9 8 7 5 4 3 3 3 4 3 3 3 5 4 4 3 3 4 5 5 3 3 3
7 7 7 7 6 5 4 3 4 4 4 5 5 3 2 2 1 3 6 7 7 7 4 3 4 4 5 4 5 5 6 5 4 5 6 7 8 8 6 5 4 5 7
6 6 6 7 8 7 6 5 4 4 6 5 4 6 7 4 2 1 3 7 5 4 4 2 1 1 2 4 7 6 6 7 8 6 6 8 8 6 5 8 7 7 7
6 6 6 6 6 7 7 7 6 5 5 6 4 3 4 6 6 2 2 3 2 5 6 3 3 3 2 1 3 4 5 7 8 8 7 8 9 11 11 10 8 8 8
8 7 7 7 6 6 6 7 7 5 6 5 5 6 4 2 3 4 2 1 3 4 9 4 5 7 5 1 3 2 4 5 6 7 8 7 8 10 10 9 8 8 7
12 10 8 8 7 6 6 5 5 6 6 5 5 5 4 4 3 4 3 1 2 4 4 4 9 5 6 1 1 5 6 7 8 7 7 5 6 13 11 6 6 6 8
12 10 9 9 7 7 7 6 6 5 6 5 4 4 3 2 3 2 1 2 1 2 3 3 10 11 9 8 7 6 6 7 9 9 9 6 4 12 8 5 5 5 6
13 11 10 9 8 8 8 7 7 6 5 5 4 3 3 2 1 1 1 3 3 1 2 1 1 5 12 10 9 6 5 6 7 7 6 4 3 3 5 5 3 3 7
14 11 10 9 7 7 8 8 8 5 4 4 4 3 4 2 1 2 2 3 5 5 2 3 10 13 11 10 7 5 4 5 6 8 4 2 0 2 3 3 4 6 7
12 9 10 9 7 7 7 7 6 6 5 4 4 5 3 3 3 4 6 6 4 5 5 11 11 9 9 5 2 4 5 4 4 3 4 1 1 1 4 3 2 4 7
11 9 7 7 7 6 5 5 5 4 4 3 3 3 2 3 4 5 4 4 5 5 5 8 9 5 8 5 5 5 2 0 4 6 7 5 3 4 1 2 3 4 5
11 9 9 10 6 6 5 3 4 5 4 5 5 5 5 4 3 3 4 4 5 5 5 7 6 2 4 2 3 2 1 1 3 3 1 6 5 2 3 4 5 5 5
13 12 13 10 9 9 7 5 5 6 6 5 6 6 6 5 5 5 4 4 5 5 5 6 6 4 2 3 1 2 1 1 1 2 2 2 2 3 4 5 5 5 5
10 12 12 10 10 7 5 6 6 5 6 5 6 5 4 5 5 3 3 2 3 2 2 5 3 1 0 0 1 1 2 3 4 2 2 2 2 3 5 5 6 5 4
14 13 13 10 8 8 7 6 5 5 5 7 6 4 4 6 7 3 3 4 6 1 2 4 3 3 3 2 2 1 3 2 1 2 2 2 2 3 4 5 2 2 3
16 16 14 13 12 10 6 5 4 4 5 6 6 6 5 8 6 6 6 4 4 5 5 6 9 7 4 3 3 5 4 4 3 1 1 2 1 2 2 2 1 2 3
18 16 13 11 11 8 6 4 5 4 5 7 6 5 6 7 7 8 7 6 8 10 11 12 12 10 6 4 4 4 5 6 6 7 2 1 2 3 4 3 3 4 4
16 13 12 11 11 9 4 4 4 4 6 6 5 5 6 8 8 10 7 10 11 13 11 11 10 9 9 7 4 2 2 3 2 1 7 3 2 5 5 6 3 3 5
14 12 11 10 9 9 5 5 3 1 5 5 5 3 6 8 10 9 8 9 10 9 8 6 7 7 7 6 5 5 3 1 2 2 5 5 3 5 2 1 3 4 6
Wind_Direction
239 223 223 227 206 213 207 181 142 135 163 201 224 259 239 233 183 139 165 9 317 257 230 230 238 239 228 200 182 157 154 165 188 224 239 251 264 268 267 265 264 260 259
229 234 240 242 237 220 193 110 150 185 177 210 230 257 271 259 245 243 251 281 299 293 254 235 233 227 217 198 194 168 169 179 207 233 247 273 281 285 288 282 275 269 265
207 219 258 262 246 234 208 231 233 230 220 217 234 243 278 286 294 259 226 236 235 282 269 266 241 236 223 218 216 182 200 217 238 265 277 285 291 290 286 284 283 279 274
158 207 197 207 254 261 239 217 225 224 211 196 210 235 246 260 287 280 267 245 227 190 212 317 313 292 284 257 237 200 200 243 266 281 290 294 305 308 315 305 295 291 290
180 205 229 248 211 230 236 243 223 223 217 194 190 256 230 265 269 263 61 309 218 209 156 115 37 6 345 326 300 315 272 250 264 281 295 301 290 297 304 310 313 304 300
166 173 175 186 191 169 174 231 263 198 245 262 237 166 144 161 123 109 96 72 81 149 150 85 79 71 53 36 27 47 41 71 181 231 299 311 312 312 311 311 308 312 316
194 187 199 187 158 152 164 155 196 192 68 314 148 134 131 134 122 114 106 95 93 95 99 95 84 79 79 85 40 52 62 49 44 19 360 337 338 336 337 336 327 322 324
183 203 192 177 171 173 161 174 166 165 104 41 165 132 121 120 143 126 111 104 102 99 90 79 51 36 44 43 23 15 18 11 15 352 339 330 329 323 326 322 328 10 353
191 194 187 188 179 179 165 141 137 143 150 73 62 148 122 181 84 142 127 112 108 94 82 67 57 19 359 346 343 348 351 347 344 351 343 342 334 320 307 313 357 14 5
191 189 189 188 189 182 164 155 145 130 149 132 90 74 84 121 145 127 117 86 73 52 47 69 24 3 315 332 353 8 24 35 32 15 353 354 8 12 28 35 15 8 352
200 190 183 184 186 184 170 161 148 139 133 125 119 123 93 89 89 122 191 306 346 352 346 337 24 348 209 256 8 25 41 39 35 31 18 28 24 16 9 10 11 2 349
204 200 196 190 194 188 175 159 150 145 138 127 112 101 93 126 101 89 90 320 333 329 341 18 24 14 159 232 356 30 26 17 2 5 12 12 4 5 13 17 22 23 3
209 203 201 194 194 201 190 168 154 154 150 139 134 110 109 88 95 105 110 45 20 325 339 63 29 100 139 180 67 335 331 338 323 329 331 349 322 329 341 359 23 23 22
215 210 206 203 201 199 192 180 175 171 149 150 149 134 102 75 60 90 138 148 12 324 306 352 85 79 48 12 356 322 306 312 309 311 309 302 277 314 335 15 19 33 26
214 206 213 211 205 198 193 176 172 177 168 160 161 151 137 79 22 345 237 233 173 165 288 251 164 360 351 342 337 320 326 324 329 336 330 200 266 341 17 42 69 54 339
202 207 209 212 205 205 197 181 175 173 166 164 174 207 177 233 277 284 290 270 243 229 250 299 302 328 343 323 304 311 336 342 4 18 12 176 133 30 34 40 38 47 35
202 201 196 199 197 204 197 174 170 160 160 178 214 225 211 256 264 263 268 272 274 256 264 292 300 330 323 336 246 307 330 356 14 72 102 118 178 38 80 95 43 358 356
183 174 188 189 185 193 199 181 171 175 176 196 221 232 252 224 259 265 272 268 274 272 267 277 299 313 312 305 305 306 317 200 172 124 107 113 96 121 109 9 347 1 28
173 172 185 190 174 195 190 184 190 185 192 240 242 238 243 258 268 227 254 275 278 280 272 267 284 307 316 290 285 257 242 200 212 217 205 113 113 60 29 19 32 42 42
181 180 190 184 196 208 186 188 231 224 229 235 233 234 229 244 231 223 232 242 270 278 258 259 278 265 257 285 246 227 170 108 116 99 142 187 203 116 60 38 42 55 64
199 207 198 184 186 182 191 205 196 199 226 234 229 225 214 215 204 192 198 251 282 238 246 258 229 201 74 86 223 238 165 128 85 102 108 102 119 88 39 66 77 82 76
218 198 192 183 195 195 205 198 199 202 211 232 214 207 209 182 169 151 119 82 60 82 218 179 152 139 112 80 43 95 145 158 130 68 109 93 135 140 110 76 99 128 82
203 200 194 188 195 197 211 200 194 190 213 221 212 203 195 177 179 150 136 100 96 91 119 149 139 135 123 87 94 97 113 119 112 61 133 147 228 241 205 188 172 251 285
208 208 203 197 194 204 201 198 188 195 219 224 216 202 195 193 186 171 164 114 108 99 100 104 102 94 87 104 102 102 101 116 103 52 47 195 304 278 257 247 250 288 314
199 204 196 188 200 196 198 192 195 219 208 214 207 201 202 195 188 174 165 136 118 107 99 97 97 88 76 77 93 103 108 205 195 39 20 351 315 306 267 252 250 319 331
200 187 183 200 200 193 191 177 180 157 180 186 170 179 197 189 172 174 185 165 151 144 142 127 93 73 61 57 54 56 54 149 141 128 10 3 345 342 328 154 232 260 312